Location: Владивосток
(43.1151°N, 131.8856°E)
Time: 05:58:03
(UTC+10:00)

LO-87 - Pass Details

Date: 02 July 2022
Orbit: 451 x 466 km, 97.4° (Epoch: 08 August)

Event Time Altitude Azimuth Distance (km) Brightness Sun altitude
Exits shadow 23:32:44 11° 72° (ENE) 1,583 ? -19.7°
Maximum altitude 23:33:14 11° 64° (ENE) 1,568 ? -19.7°
Drops below altitude 10° 23:34:05 10° 49° (NE) 1,617 ? -19.8°
Sets 23:37:36 0° 11° (N) 2,505 ? -20.1°
